FDB161 EDDF-OMDB

Flight info

Callsign FDB161
Flight time N/A
Altitude 33000
Route EDDF/25C CINDY Z74 LAMPU DCT NOMBO Y161 MAH DCT LATLO DCT OBEDI DCT BABOL DCT NISVA/N0464F350 DCT USALI DCT OTKOK DCT RODIP DCT BELGI DCT KETEK UT38 VESAR L620 BALMA UR655 LEBOR R655 KTN R785 RASLI P559 TRF R23 NEVOL N318 GIBAM/N0462F370 N318 TAMRO T503 KSA M321 RESAL T533 RAPMA DCT KUVSO DCT KATIT DCT PEKEM M628 RIGIL G783 ELUDA/N0472F350 G783 ASPED Q308 KIPOK Q568 IMPED
Aircraft B38M/M-SDE1FGHILORVWXY/HB1

Departure

Time N/A
Airport Frankfurt Main Airport (EDDF)

Arrival

Time 2026-05-03 21:50
Airport Dubai International Airport (OMDB)
Time Latitude Longitude Altitude Speed Heading
2026-05-03 20:15 24.69514 46.80298 35013 ft 465 kts 157°
2026-05-03 20:15 24.64031 46.83918 35038 ft 464 kts 136°
2026-05-03 20:16 24.59535 46.89037 35022 ft 466 kts 131°
2026-05-03 20:16 24.55298 46.94427 35016 ft 466 kts 131°
2026-05-03 20:17 24.50937 46.99688 35016 ft 465 kts 133°
2026-05-03 20:17 24.46546 47.04919 35012 ft 466 kts 132°
2026-05-03 20:18 24.42212 47.10201 35012 ft 466 kts 132°
2026-05-03 20:18 24.37854 47.15461 35015 ft 466 kts 133°
2026-05-03 20:19 24.33490 47.20703 35011 ft 465 kts 132°
2026-05-03 20:19 24.29169 47.25912 35012 ft 465 kts 132°
2026-05-03 20:20 24.24815 47.31149 35012 ft 465 kts 132°
2026-05-03 20:20 24.20455 47.36383 35016 ft 465 kts 132°
2026-05-03 20:21 24.16102 47.41607 35016 ft 464 kts 132°
2026-05-03 20:21 24.11739 47.46837 35012 ft 465 kts 133°
2026-05-03 20:22 24.07378 47.52057 35012 ft 465 kts 133°
2026-05-03 20:22 24.03012 47.57279 35012 ft 465 kts 133°
2026-05-03 20:23 23.98644 47.62497 35014 ft 465 kts 133°
2026-05-03 20:23 23.94275 47.67711 35016 ft 465 kts 133°
2026-05-03 20:24 23.89901 47.72925 35012 ft 465 kts 133°
2026-05-03 20:24 23.85522 47.78140 35012 ft 465 kts 133°
2026-05-03 20:25 23.81149 47.83341 35017 ft 465 kts 133°
2026-05-03 20:25 23.76771 47.88543 35016 ft 465 kts 133°
2026-05-03 20:26 23.72424 47.93703 35012 ft 465 kts 133°
2026-05-03 20:26 23.68018 47.98927 35012 ft 465 kts 133°
2026-05-03 20:27 23.63641 48.04112 35012 ft 465 kts 133°
2026-05-03 20:27 23.59288 48.09261 35012 ft 464 kts 133°
2026-05-03 20:28 23.54909 48.14437 35012 ft 464 kts 133°
2026-05-03 20:28 23.50526 48.19611 35013 ft 464 kts 133°
2026-05-03 20:29 23.46143 48.24781 35012 ft 464 kts 133°
2026-05-03 20:29 23.41780 48.29962 35011 ft 464 kts 129°
2026-05-03 20:29 23.39963 48.32858 35023 ft 464 kts 118°
2026-05-03 20:30 23.38686 48.36076 35031 ft 464 kts 107°
2026-05-03 20:30 23.38025 48.39510 35037 ft 465 kts 95°
2026-05-03 20:30 23.37828 48.43020 35027 ft 465 kts 92°
2026-05-03 20:31 23.37619 48.48873 35021 ft 465 kts 92°
2026-05-03 20:31 23.37314 48.57084 35013 ft 464 kts 92°
2026-05-03 20:32 23.37053 48.62916 35012 ft 464 kts 92°
2026-05-03 20:32 23.36762 48.69937 35019 ft 464 kts 92°
2026-05-03 20:33 23.36475 48.76959 35015 ft 464 kts 92°
2026-05-03 20:33 23.36172 48.83980 35017 ft 464 kts 92°
2026-05-03 20:34 23.35873 48.90944 35018 ft 463 kts 92°
2026-05-03 20:34 23.35571 48.97947 35017 ft 464 kts 92°
2026-05-03 20:35 23.35260 49.05003 35012 ft 463 kts 93°
2026-05-03 20:35 23.34429 49.11898 35021 ft 463 kts 98°
2026-05-03 20:36 23.33437 49.18825 35014 ft 463 kts 99°
2026-05-03 20:36 23.32433 49.25745 35013 ft 463 kts 99°
2026-05-03 20:37 23.31440 49.32667 35015 ft 463 kts 99°
2026-05-03 20:37 23.30440 49.39590 35020 ft 463 kts 99°
2026-05-03 20:38 23.29433 49.46515 35015 ft 463 kts 99°
2026-05-03 20:38 23.28426 49.53442 35012 ft 463 kts 99°
2026-05-03 20:39 23.27414 49.60372 35014 ft 463 kts 99°
2026-05-03 20:39 23.26401 49.67289 35012 ft 463 kts 99°
2026-05-03 20:40 23.25384 49.74209 35015 ft 463 kts 99°
2026-05-03 20:40 23.24364 49.81131 35016 ft 463 kts 99°
2026-05-03 20:41 23.23349 49.88000 35012 ft 463 kts 99°
2026-05-03 20:41 23.22324 49.94915 35012 ft 463 kts 99°
2026-05-03 20:42 23.21295 50.01829 35016 ft 463 kts 99°
2026-05-03 20:42 23.20264 50.08741 35012 ft 463 kts 99°
2026-05-03 20:43 23.19229 50.15655 35015 ft 463 kts 99°
2026-05-03 20:43 23.18191 50.22566 35012 ft 463 kts 99°
2026-05-03 20:44 23.17152 50.29466 35014 ft 463 kts 99°
2026-05-03 20:44 23.16109 50.36370 35012 ft 463 kts 99°
2026-05-03 20:45 23.15063 50.43280 35019 ft 463 kts 99°
2026-05-03 20:45 23.14014 50.50182 35012 ft 463 kts 99°
2026-05-03 20:46 23.12961 50.57091 35011 ft 463 kts 99°
2026-05-03 20:46 23.11906 50.63991 35012 ft 463 kts 99°
2026-05-03 20:47 23.10854 50.70852 35012 ft 463 kts 99°
2026-05-03 20:47 23.09793 50.77749 35012 ft 463 kts 99°
2026-05-03 20:48 23.08729 50.84644 35019 ft 463 kts 99°
2026-05-03 20:48 23.07662 50.91538 35019 ft 463 kts 99°
2026-05-03 20:49 23.06593 50.98431 35017 ft 463 kts 99°
2026-05-03 20:49 23.05521 51.05318 35011 ft 463 kts 99°
2026-05-03 20:50 23.04444 51.12215 35014 ft 463 kts 99°
2026-05-03 20:50 23.03366 51.19103 35012 ft 463 kts 99°
2026-05-03 20:51 23.02285 51.25990 35012 ft 463 kts 99°
2026-05-03 20:51 23.01201 51.32875 35011 ft 463 kts 99°
2026-05-03 20:52 23.00113 51.39762 35012 ft 463 kts 99°
2026-05-03 20:52 22.99024 51.46639 35019 ft 463 kts 99°
2026-05-03 20:53 22.97938 51.53474 35012 ft 463 kts 99°
2026-05-03 20:53 22.96842 51.60353 35014 ft 463 kts 100°
2026-05-03 20:54 22.95743 51.67234 35012 ft 462 kts 100°
2026-05-03 20:54 22.94090 51.77547 35012 ft 462 kts 100°
2026-05-03 20:55 22.92984 51.84421 35012 ft 462 kts 100°
2026-05-03 20:55 22.91874 51.91297 35012 ft 462 kts 100°
2026-05-03 20:56 22.90762 51.98169 35012 ft 462 kts 100°
2026-05-03 20:56 22.89654 52.04998 35015 ft 463 kts 100°
2026-05-03 20:57 22.88536 52.11868 35012 ft 463 kts 100°
2026-05-03 20:57 22.87413 52.18749 35012 ft 463 kts 100°
2026-05-03 20:58 22.86290 52.25614 35012 ft 463 kts 100°
2026-05-03 20:58 22.85163 52.32481 35012 ft 463 kts 100°
2026-05-03 20:59 22.84033 52.39349 35013 ft 463 kts 100°
2026-05-03 20:59 22.82899 52.46218 35015 ft 463 kts 100°
2026-05-03 21:00 22.82376 52.51977 35024 ft 462 kts 92°
2026-05-03 21:00 22.82153 52.60138 35016 ft 463 kts 91°
2026-05-03 21:01 22.81992 52.67069 35012 ft 463 kts 91°
2026-05-03 21:01 22.81804 52.74044 35019 ft 463 kts 91°
2026-05-03 21:02 22.81615 52.81015 35015 ft 463 kts 91°
2026-05-03 21:02 22.81430 52.87990 35012 ft 463 kts 91°
2026-05-03 21:03 22.81238 52.94965 35012 ft 463 kts 91°
2026-05-03 21:03 22.81042 53.01936 35019 ft 463 kts 91°
2026-05-03 21:04 22.80845 53.08911 35012 ft 463 kts 92°
2026-05-03 21:04 22.80644 53.15886 35012 ft 463 kts 92°
2026-05-03 21:05 22.80440 53.22860 35019 ft 463 kts 92°
2026-05-03 21:05 22.80234 53.29830 35012 ft 463 kts 92°
2026-05-03 21:06 22.80024 53.36802 35013 ft 463 kts 92°
2026-05-03 21:06 22.79811 53.43779 35013 ft 463 kts 92°
2026-05-03 21:07 22.79595 53.50754 35012 ft 463 kts 92°
2026-05-03 21:07 22.79377 53.57687 35013 ft 463 kts 92°
2026-05-03 21:08 22.79155 53.64659 35013 ft 463 kts 92°
2026-05-03 21:08 22.78930 53.71630 35012 ft 462 kts 92°
2026-05-03 21:09 22.78702 53.78596 35013 ft 463 kts 92°
2026-05-03 21:09 22.78471 53.85581 35013 ft 463 kts 92°
2026-05-03 21:10 22.78236 53.92560 35018 ft 463 kts 92°
2026-05-03 21:10 22.78169 53.99529 35018 ft 462 kts 84°
2026-05-03 21:11 22.79380 54.06380 35021 ft 463 kts 77°
2026-05-03 21:11 22.80789 54.13186 35021 ft 463 kts 77°
2026-05-03 21:12 22.82186 54.19997 35014 ft 463 kts 77°
2026-05-03 21:12 22.83545 54.26773 35012 ft 463 kts 77°
2026-05-03 21:13 22.84926 54.33584 35012 ft 463 kts 77°
2026-05-03 21:13 22.86306 54.40405 35012 ft 463 kts 77°
2026-05-03 21:14 22.87677 54.47229 35011 ft 463 kts 77°
2026-05-03 21:14 22.89047 54.54053 35011 ft 463 kts 77°
2026-05-03 21:15 22.90416 54.60878 35016 ft 463 kts 78°
2026-05-03 21:15 22.91780 54.67704 35012 ft 463 kts 78°
2026-05-03 21:16 22.93132 54.74483 35011 ft 463 kts 78°
2026-05-03 21:16 22.94490 54.81307 35011 ft 463 kts 78°
2026-05-03 21:17 22.95626 54.87025 35011 ft 463 kts 78°
2026-05-03 21:17 22.97196 54.94954 35011 ft 463 kts 78°
2026-05-03 21:18 22.98546 55.01787 35011 ft 463 kts 78°
2026-05-03 21:18 22.99892 55.08616 35016 ft 463 kts 78°
2026-05-03 21:19 23.01239 55.15452 35011 ft 463 kts 76°
2026-05-03 21:19 23.03333 55.20750 35028 ft 462 kts 55°
2026-05-03 21:20 23.05436 55.23377 35039 ft 462 kts 41°
2026-05-03 21:20 23.08070 55.25360 35046 ft 462 kts 26°
2026-05-03 21:20 23.14169 55.27532 35040 ft 463 kts 14°
2026-05-03 21:21 23.20405 55.29289 35018 ft 462 kts 14°
2026-05-03 21:21 23.26605 55.31112 35022 ft 461 kts 15°
2026-05-03 21:22 23.32803 55.32969 35017 ft 461 kts 15°
2026-05-03 21:22 23.39004 55.34786 35018 ft 461 kts 15°
2026-05-03 21:23 23.45203 55.36616 35016 ft 462 kts 15°
2026-05-03 21:23 23.51405 55.38457 35011 ft 462 kts 15°
2026-05-03 21:24 23.57602 55.40288 35012 ft 462 kts 15°
2026-05-03 21:24 23.63803 55.42122 35012 ft 462 kts 15°
2026-05-03 21:25 23.70004 55.43962 35012 ft 462 kts 15°
2026-05-03 21:25 23.76206 55.45801 35015 ft 462 kts 15°
2026-05-03 21:26 23.82350 55.47626 35010 ft 459 kts 15°
2026-05-03 21:26 23.88496 55.49452 35010 ft 456 kts 15°
2026-05-03 21:27 23.94624 55.51270 35011 ft 456 kts 15°
2026-05-03 21:27 24.00599 55.53558 35022 ft 456 kts 28°
2026-05-03 21:28 24.03255 55.55451 35028 ft 457 kts 39°
2026-05-03 21:28 24.05663 55.57732 35023 ft 457 kts 41°
2026-05-03 21:28 24.10371 55.62423 35016 ft 457 kts 42°
2026-05-03 21:29 24.15071 55.67118 35016 ft 457 kts 42°
2026-05-03 21:29 24.19796 55.71778 35011 ft 457 kts 42°
2026-05-03 21:30 24.22160 55.74121 34237 ft 460 kts 42°
2026-05-03 21:30 24.24542 55.76493 33393 ft 464 kts 42°
2026-05-03 21:30 24.26936 55.78880 32546 ft 467 kts 42°
2026-05-03 21:30 24.29350 55.81283 31692 ft 470 kts 42°
2026-05-03 21:31 24.31779 55.83698 30834 ft 472 kts 42°
2026-05-03 21:31 24.34185 55.86090 29982 ft 474 kts 42°
2026-05-03 21:31 24.36623 55.88518 29114 ft 470 kts 42°
2026-05-03 21:31 24.39007 55.90895 28260 ft 456 kts 42°
2026-05-03 21:32 24.41320 55.93201 27450 ft 443 kts 42°
2026-05-03 21:32 24.43599 55.95475 26618 ft 442 kts 42°
2026-05-03 21:32 24.45846 55.97715 25657 ft 432 kts 42°
2026-05-03 21:32 24.48050 55.99915 24680 ft 424 kts 42°
2026-05-03 21:33 24.50213 56.02077 23721 ft 416 kts 42°
2026-05-03 21:33 24.52338 56.04200 22731 ft 410 kts 42°
2026-05-03 21:33 24.54430 56.06292 21762 ft 403 kts 42°
2026-05-03 21:33 24.56487 56.08353 20789 ft 397 kts 42°
2026-05-03 21:34 24.58548 56.10343 19817 ft 392 kts 36°
2026-05-03 21:34 24.60864 56.11861 18853 ft 386 kts 24°
2026-05-03 21:34 24.63400 56.12755 17890 ft 380 kts 11°
2026-05-03 21:34 24.65975 56.13273 17037 ft 372 kts
2026-05-03 21:35 24.68461 56.13721 16603 ft 353 kts
2026-05-03 21:35 24.70846 56.14134 16152 ft 345 kts
2026-05-03 21:35 24.73259 56.14562 15523 ft 360 kts
2026-05-03 21:35 24.75747 56.15018 14867 ft 370 kts
2026-05-03 21:36 24.78305 56.15218 14446 ft 364 kts 357°
2026-05-03 21:36 24.80806 56.14825 13996 ft 373 kts 345°
2026-05-03 21:36 24.83213 56.13750 13487 ft 371 kts 329°
2026-05-03 21:36 24.85218 56.12015 12844 ft 367 kts 313°
2026-05-03 21:37 24.86686 56.09719 12034 ft 369 kts 297°
2026-05-03 21:37 24.87593 56.07093 11428 ft 365 kts 284°
2026-05-03 21:37 24.88185 56.04447 11314 ft 346 kts 292°
2026-05-03 21:37 24.89529 56.02381 11319 ft 325 kts 320°
2026-05-03 21:38 24.91489 56.01291 11029 ft 315 kts 346°
2026-05-03 21:38 24.93673 56.01026 10498 ft 315 kts 355°
2026-05-03 21:38 24.95810 56.00753 10317 ft 303 kts 350°
2026-05-03 21:38 24.97824 56.00292 10185 ft 289 kts 346°
2026-05-03 21:39 24.99732 55.99723 10070 ft 281 kts 343°
2026-05-03 21:39 25.01591 55.99106 9932 ft 278 kts 342°
2026-05-03 21:39 25.03437 55.98463 9753 ft 279 kts 342°
2026-05-03 21:39 25.05223 55.97659 9497 ft 275 kts 329°
2026-05-03 21:40 25.06760 55.96499 9251 ft 268 kts 321°
2026-05-03 21:40 25.07954 55.94975 9025 ft 260 kts 297°
2026-05-03 21:40 25.08553 55.93108 8773 ft 258 kts 282°
2026-05-03 21:40 25.08792 55.91152 8519 ft 257 kts 271°
2026-05-03 21:41 25.08698 55.89188 8275 ft 256 kts 263°
2026-05-03 21:41 25.08423 55.87267 8218 ft 248 kts 259°
2026-05-03 21:41 25.08069 55.85412 8282 ft 247 kts 257°
2026-05-03 21:41 25.07660 55.83500 8249 ft 260 kts 256°
2026-05-03 21:42 25.07307 55.81553 8205 ft 260 kts 271°
2026-05-03 21:42 25.07521 55.79609 8221 ft 252 kts 279°
2026-05-03 21:42 25.07840 55.77769 8219 ft 236 kts 281°
2026-05-03 21:42 25.08156 55.76050 8215 ft 221 kts 281°
2026-05-03 21:43 25.08444 55.74414 8029 ft 216 kts 281°
2026-05-03 21:43 25.08725 55.72755 7754 ft 224 kts 280°
2026-05-03 21:43 25.08998 55.71057 7451 ft 231 kts 279°
2026-05-03 21:43 25.09237 55.69312 7212 ft 229 kts 278°
2026-05-03 21:44 25.09537 55.67594 6937 ft 228 kts 283°
2026-05-03 21:44 25.10029 55.65902 6501 ft 235 kts 291°
2026-05-03 21:44 25.10689 55.64240 6194 ft 235 kts 294°
2026-05-03 21:44 25.11419 55.62634 5898 ft 234 kts 298°
2026-05-03 21:45 25.12228 55.61067 5540 ft 236 kts 298°
2026-05-03 21:45 25.13021 55.59475 5222 ft 236 kts 298°
2026-05-03 21:45 25.13794 55.57892 4837 ft 239 kts 297°
2026-05-03 21:45 25.14569 55.56282 4476 ft 238 kts 297°
2026-05-03 21:46 25.15348 55.54670 4085 ft 238 kts 298°
2026-05-03 21:46 25.16150 55.53074 3651 ft 238 kts 299°
2026-05-03 21:46 25.16975 55.51524 3166 ft 228 kts 301°
2026-05-03 21:46 25.17778 55.50081 2856 ft 211 kts 301°
2026-05-03 21:47 25.18509 55.48736 2472 ft 201 kts 300°
2026-05-03 21:47 25.19208 55.47429 2060 ft 193 kts 300°
2026-05-03 21:47 25.19879 55.46177 1628 ft 188 kts 301°
2026-05-03 21:47 25.20542 55.44993 1373 ft 174 kts 301°
2026-05-03 21:48 25.21159 55.43906 1148 ft 158 kts 301°
2026-05-03 21:48 25.21696 55.42924 878 ft 145 kts 300°
2026-05-03 21:48 25.22203 55.41962 580 ft 144 kts 301°
2026-05-03 21:48 25.22720 55.41035 357 ft 140 kts 301°
2026-05-03 21:49 25.23218 55.40139 171 ft 134 kts 301°
2026-05-03 21:49 25.23694 55.39292 38 ft 129 kts 301°
2026-05-03 21:49 25.24105 55.38561 28 ft 88 kts 301°
2026-05-03 21:49 25.24351 55.38115 25 ft 55 kts 301°
2026-05-03 21:50 25.24541 55.37773 24 ft 50 kts 301°
2026-05-03 21:50 25.24703 55.37476 23 ft 36 kts 300°
2026-05-03 21:50 25.24774 55.37282 23 ft 25 kts 281°
2026-05-03 21:50 25.24786 55.37089 22 ft 25 kts 272°
2026-05-03 21:51 25.24815 55.36923 21 ft 18 kts 297°
2026-05-03 21:51 25.24861 55.36793 21 ft 18 kts 281°
2026-05-03 21:51 25.24901 55.36656 21 ft 19 kts 296°
2026-05-03 21:51 25.24942 55.36577 21 ft 0 kts 301°
2026-05-03 21:52 25.24978 55.36511 24 ft 14 kts 302°
2026-05-03 21:52 25.25033 55.36414 22 ft 16 kts 302°
2026-05-03 21:52 25.25095 55.36305 21 ft 18 kts 302°
2026-05-03 21:52 25.25163 55.36185 22 ft 19 kts 302°
2026-05-03 21:53 25.25233 55.36060 22 ft 19 kts 302°
2026-05-03 21:53 25.25305 55.35932 21 ft 20 kts 302°
2026-05-03 21:53 25.25378 55.35802 21 ft 20 kts 302°
2026-05-03 21:53 25.25452 55.35670 21 ft 20 kts 301°
2026-05-03 21:54 25.25527 55.35535 21 ft 21 kts 301°
2026-05-03 21:54 25.25604 55.35400 21 ft 21 kts 302°
2026-05-03 21:54 25.25679 55.35267 21 ft 16 kts 301°
2026-05-03 21:54 25.25749 55.35210 23 ft 12 kts
2026-05-03 21:55 25.25828 55.35253 21 ft 13 kts 31°
2026-05-03 21:55 25.25911 55.35308 22 ft 14 kts 31°
2026-05-03 21:55 25.25997 55.35365 21 ft 12 kts 31°
2026-05-03 21:55 25.26076 55.35383 23 ft 12 kts 329°
2026-05-03 21:56 25.26132 55.35307 26 ft 13 kts 308°
2026-05-03 21:56 25.26213 55.35305 23 ft 13 kts 27°
2026-05-03 21:56 25.26316 55.35374 27 ft 22 kts 32°
2026-05-03 21:56 25.26430 55.35450 22 ft 18 kts 31°
2026-05-03 21:57 25.26525 55.35511 21 ft 10 kts 30°
2026-05-03 21:57 25.26580 55.35547 21 ft 4 kts 31°
2026-05-03 21:57 25.26591 55.35554 21 ft 2 kts 31°
2026-05-03 21:57 25.26594 55.35556 21 ft 0 kts 31°